Home   Weather   Lincoln   Past weeks

Flag for USA Past Weather in Lincoln, Nebraska, USA — Yesterday and Last 2 Weeks

Now
50 °F

Overcast.


Feels Like: 49 °F
Forecast: 42 / 48 °F
Wind: 3 mph from Southeast

Location: Lincoln Municipal Airport

Current Time: Apr 27, 2017 at 11:56:22 pm

Latest Report: Apr 27, 2017 at 10:54 pm


Visibility: 10 mi

Pressure: 29.76 "Hg

Humidity: 74%

Dew Point: 42 °F

Location of LincolnLocation

Past Weather in Lincoln — Graph

°F

Lincoln Temperature Yesterday

Maximum temperature yesterday: 46 °F (at 6:54 pm)
Minimum temperature yesterday: 38 °F (at 4:54 am)
Average temperature yesterday: 41 °F

High & Low Weather Summary for the Past Weeks

 TemperatureHumidityPressure
High82 °F (Apr 19, 3:54 pm)100% (Apr 13, 5:59 am)30.28 "Hg (Apr 13, 5:59 am)
Low33 °F (Apr 27, 5:54 am)19% (Apr 23, 2:54 pm)29.44 "Hg (Apr 25, 6:54 am)
Average57 °F68%29.92 "Hg
* Reported Apr 12 9:54 pm — Apr 27 9:54 pm, Lincoln, Weather by CustomWeather, © 2017

Note: Actual official high and low records may vary slightly from our data, if they occured in-between our weather recording intervals... More about our weather records

Advertising

Lincoln Weather History for the Previous 24 Hours

Scroll right to see more
 ConditionsComfort  
Time TempWeatherWind HumidityBarometerVisibility
9:54 pm
Thu, Apr 27
52 °FOvercast.6 mph64%29.77 "Hg10 mi
8:54 pm53 °FMostly cloudy.3 mph56%29.75 "Hg10 mi
7:54 pm53 °FCloudy.5 mph55%29.74 "Hg10 mi
6:54 pm56 °FOvercast.12 mph46%29.73 "Hg10 mi
5:54 pm57 °FPartly sunny.8 mph41%29.72 "Hg10 mi
4:54 pm58 °FOvercast.9 mph43%29.70 "Hg10 mi
3:54 pm58 °FSunny.8 mph38%29.71 "Hg10 mi
2:54 pm58 °FPassing clouds.9 mph38%29.72 "Hg10 mi
1:54 pm56 °FSunny.No wind40%29.72 "Hg10 mi
12:54 pm53 °FSunny.6 mph45%29.75 "Hg10 mi
11:54 am51 °FSunny.7 mph48%29.77 "Hg10 mi
10:54 am48 °FSunny.5 mph52%29.76 "Hg10 mi
9:54 am46 °FSunny.13 mph56%29.75 "Hg10 mi
8:54 am41 °FSunny.15 mph65%29.75 "Hg10 mi
7:54 am37 °FSunny.3 mph73%29.75 "Hg10 mi
6:54 am33 °FSunny.3 mph82%29.73 "Hg10 mi
5:54 am33 °FClear.5 mph82%29.71 "Hg10 mi
4:54 am35 °FClear.6 mph78%29.70 "Hg10 mi
3:54 am38 °FOvercast.9 mph76%29.70 "Hg10 mi
2:54 am40 °FOvercast.7 mph70%29.70 "Hg10 mi
1:54 am41 °FOvercast.6 mph67%29.72 "Hg10 mi
12:54 am42 °FOvercast.5 mph65%29.72 "Hg10 mi
11:54 pm
Wed, Apr 26
43 °FOvercast.6 mph60%29.72 "Hg10 mi
Weather by CustomWeather, © 2017

See weather overviewHow to use our weather pages